Location: Cabeza de los Veneras
(40.2000°N, 5.2000°W)
Time: 02:52:29
(UTC+00:00)

CZ-4 R/B - Pass Details

Date: 18 April 2024
Orbit: 516 x 571 km, 97.6° (Epoch: 25 May)

Event Time Altitude Azimuth Distance (km) Brightness Sun altitude
Rises 19:29:50 0° 158° (SSE) 2,712 4.5 -5.7°
Reaches altitude 10° 19:31:59 10° 154° (SSE) 1,813 3.5 -6.1°
Maximum altitude 19:35:50 59° 75° (ENE) 630 1.4 -6.8°
Drops below altitude 10° 19:39:39 10° 356° (N) 1,794 4.3 -7.5°
Sets 19:41:46 0° 352° (N) 2,680 5.3 -7.8°
